Location: Campillo
(40.8621°N, 4.2488°W)
Time: 05:40:08
(UTC+00:00)

X-37B - Pass Details

Date: 30 July 2021
Orbit: 381 x 393 km, 45.0° (Epoch: 29 August)

Event Time Altitude Azimuth Distance (km) Brightness Sun altitude
Exits shadow 03:50:58 11° 171° (S) 1,329 3.0 -13.6°
Maximum altitude 03:52:26 14° 141° (SE) 1,171 3.0 -13.4°
Drops below altitude 10° 03:54:12 10° 107° (ESE) 1,394 3.9 -13.2°
Sets 03:56:57 0° 81° (E) 2,252 5.6 -12.8°
